Tracking 18980 objects as of 18-Feb-2018
HD Live streaming from Space Station
objects crossing your sky now

PALAPA 2

Track PALAPA 2 now!
PALAPA 2 is classified as:


NORAD ID: 9862
Int'l Code: 1977-018A
Perigee: 35,826.5 km
Apogee: 35,882.8 km
Inclination: 14.0 °
Period: 1,439.2 minutes
Semi major axis: 42225 km
RCS: 5.6864 m2 (large)
Launch date: March 10, 1977
Source: Indonesia (INDO)
Launch site: AIR FORCE EASTERN TEST RANGE (AFETR)
aabbcc
Your satellite tracking list
Your tracking list is empty




NASA's NSSDC Master Catalog

Two Line Element Set (TLE):
1 09862U 77018A   18048.03028806 -.00000045  00000-0  00000+0 0  9995
2 09862  13.9563 337.9513 0006664 348.9130 192.9248  1.00054805112658
Source of the keplerian elements: AFSPC